Location: Düngen
(52.0952°N, 10.0219°E)
Time: 15:16:20
(UTC+00:00)

Meteor 1-20 Rocket - Pass Details

Date: 11 March 2026
Orbit: 817 x 891 km, 81.2° (Epoch: 13 April)

Event Time Altitude Azimuth Distance (km) Brightness Sun altitude
Rises 17:42:47 0° 176° (S) 3,483 7.4 -4.7°
Reaches altitude 10° 17:45:16 10° 172° (S) 2,551 6.6 -5.1°
Maximum altitude 17:50:56 56° 96° (E) 1,059 4.4 -6.0°
Drops below altitude 10° 17:56:37 10° 20° (NNE) 2,563 6.6 -6.9°
Sets 17:59:07 0° 16° (NNE) 3,501 7.3 -7.2°
